Bobo Dioulasso Airport

Jump to: basic info | weather | frequencies | runways | comments

Related pages: nearby airports | nearby navaids | notams | map

Basic information (top)

Codes: BOY DFOO
Location: lon 11.160100, lat -4.330970, elev 1,511 ft / 461 m msl
Status: medium_airport
Scheduled airline service: yes
Links: Wikipedia Mobile

Weather (top)

Current conditions (rec'd 2014/07/29 08:00Z):

DFOO 290800Z 20008KT 9999 FEW016 BKN260 26/23 Q1015

Airport forecast (rec'd 2014/07/28 18:12Z):

TAF DFOO 281700Z 2818/2918 22008KT 9999 SCT020 
      TEMPO 2818/2906 4000 TSRA SCT020 SCT033CB

Frequencies (top)

Verify before use: may be inaccurate or out of date.

A/G: 667.3 MHz (AG VOICE RDO)
TWR: 119.7 MHz (TWR)

Runways (top)

06/24: 10,826 x 148 ft (3,300 x 45 m) — paved — lighted

Latest comments (top)

No comments yet for Bobo Dioulasso Airport

More... (top)

See also NOTAMs and nearby airports and navaids, or visit the Bobo Dioulasso Airport page at the main OurAirports website..